Flag for U.S.A. Weather past 2 weeks in Lewiston, Idaho, U.S.A.

Now
89 °F

Sunny.


Feels Like: 86 °F
Forecast: 66 / 96 °F
Wind: 14 mph from North

Location: Lewiston-Nez Perce County Airport

Current Time: Jul 5, 2015 at 8:45:01 PM

Latest Report: Jul 5, 2015 at 7:56 PM


Visibility: 10 mi

Pressure: 29.78 "Hg

Humidity: 24%

Dew point: 48 °F

Location of LewistonLocation

Historic Weather in Lewiston — Graph

°F

Lewiston temperature yesterday

Maximum temperature yesterday: 103 °F (at 4:56 PM)
Minimum temperature yesterday: 70 °F (at 5:56 AM)
Average temperature yesterday: 87 °F

Past Weeks' High & Low Weather Summary

 TemperatureHumidityPressure
High110 °F (Jun 28, 2:56 PM)62% (Jun 21, 6:56 AM)30.11 "Hg (Jun 21, 6:56 AM)
Low57 °F (Jun 21, 4:56 AM)8% (Jun 27, 2:56 PM)28.31 "Hg (Jun 29, 1:56 AM)
Average83 °F29%29.87 "Hg
* Reported Jun 20 6:56 PM — Jul 5 6:56 PM, Lewiston, Weather by CustomWeather, © 2015

Note: Actual official high and low records may vary slightly from our data, if they occured in-between our weather recording intervals... More about our weather records

Advertising

Lewiston weather history for previous 24 hours

 ConditionsComfort  
Time TempWeatherWind HumidityBarometerVisibility
6:56 PM
Sun, Jul 5
93 °FSunny.14 mph20%29.76 "Hg10 mi
5:56 PM96 °FSunny.14 mph18%29.75 "Hg10 mi
4:56 PM98 °FSunny.14 mph16%29.74 "Hg10 mi
3:56 PM98 °FSunny.14 mph14%29.75 "Hg10 mi
2:56 PM97 °FSunny.10 mph16%29.75 "Hg10 mi
1:56 PM97 °FSunny.12 mph13%29.75 "Hg10 mi
12:56 PM95 °FSunny.12 mph14%29.75 "Hg10 mi
11:56 AM93 °FSunny.9 mph18%29.75 "Hg10 mi
10:56 AM91 °FSunny.12 mph20%29.75 "Hg10 mi
9:56 AM87 °FSunny.5 mph27%29.74 "Hg10 mi
8:56 AM82 °FSunny.7 mph32%29.74 "Hg10 mi
7:56 AM77 °FSunny.No wind36%29.74 "Hg10 mi
6:56 AM73 °FSunny.No wind43%29.74 "Hg10 mi
5:56 AM72 °FClear.6 mph38%29.72 "Hg10 mi
4:56 AM70 °FClear.3 mph39%29.70 "Hg10 mi
3:56 AM74 °FClear.3 mph36%29.68 "Hg10 mi
2:56 AM73 °FClear.12 mph36%29.66 "Hg10 mi
1:56 AM79 °FClear.5 mph29%29.65 "Hg10 mi
12:56 AM81 °FClear.6 mph24%29.64 "Hg10 mi
11:56 PM
Sat, Jul 4
85 °FClear.No wind22%29.63 "Hg10 mi
10:56 PM83 °FClear.8 mph23%29.63 "Hg10 mi
9:56 PM90 °FClear.7 mph18%29.63 "Hg10 mi
8:56 PM93 °FSunny.10 mph16%29.62 "Hg10 mi
Weather by CustomWeather, © 2015

See weather overviewHow to use our weather pages